OBJECT A, 40899

Orbit data source: Space-Track

You're viewing an Uncataloged Satellite

Recently launched and/or uncataloged satellites may have evolving metadata. Metadata may include but not limited to: Owner, Maufacturer, Bus, Motor, and Mission.

OBJECT A, 40899 is a satellite owned by NUDT Changsha (CN) in SSO that was launched on Sat, 19 Sep 2015 UTC via a CHANG ZHENG 6 launch vehicle from the Taiyaun Space Center, China (TSC). Unknown objects in Earth's orbit typically refer to objects detected orbiting the Earth but have not yet been identified or cataloged. These objects could be anything from previously untracked satellites, spent rocket stages, debris from satellite collisions, or even natural meteoroids temporarily captured by Earth's gravity.

Loading next visibility...
OBJECT A details
Identifier
40899, 2015-049A
Orbit
SSO
Last TLE update5 hours ago
Origin
Flag of CNNUDT Changsha (CN / PRC)
ManufacturerNUDT Changsha
MissionNon-operational Amateur Communications
Bus & MotorTT2, Unknown motor
Mass~20 kg wet, 20 kg dry
Launch date (UTC)
2015-09-19 (9 years ago)
Launch vehicle
CHANG ZHENG 6
Launch site
Taiyaun Space Center, China (TSC)
Object typeUnknown
Shape & HBRBox, 0.7 m
Radar Cross Section0.595 m², Medium (>0.1 m² and < 1m²)

Expand to show TLE details & history

TLE from 5 hours ago
0 OBJECT A
1 40899U 15049A   24361.75612137  .00107441  00000-0  10984-2 0  9998
2 40899  97.4446  24.4560 0004074 358.3584   1.7661 15.64675187514470
Epoch: 2024-12-26T18:08Z
Definitive object data (Epoch: 2024-12-26T18:08:48.886Z)
Latitude-0.00002°
Longitude16.52136°
Altitude374.572 km
Speed7.686 km/s
True Right ascension01h 37m 49s
True Declination0° 00' 00"
Sunlit
Object was in daylight at TLE epoch
Visualization TLE readout
Latitude78.22118°
Longitude-21.80606°
Altitude386.926 km
Speed7.685 km/s
Apparent Right ascension10h 15m 06s
Apparent Declination35° 34' 43"
Sunlit
Object is in partial shadow
Visualization observer readout
Local Sidereal Time22:28:58
Azimuth2.912° NNE
Elevation-14.438°
Doppler factor1
Orbital elements
Apogee altitude373.831 km
Perigee altitude368.332 km
Semi-major axis6,749.218 km
Eccentricity0.0004074
Inclination97.4446°
RAAN24.456°
Arg. of periapsis358.3584°
True anomaly1.76754°
Mean anomaly1.7661°
Eccentric anomaly1.76682°
Mean motion3.91438 °/min
BSTAR0.0010984
Orbital period91.97 mins
Loading maneuver chart data...
Loading historical data...
Loading historical data...
Loading historical data...
Loading historical data...
Loading historical data...
Loading historical data...
Loading historical data...

OBJECT A Visibility forecast

Observer location: undefined°, undefined

Span
Click to sort rows by Start time (UTC) header in descending order
Start Az.
Max El. time (UTC)
Max El. Az.
Max El.
End time (UTC)
End Az.
5 mins2024-12-27 01:56:42.547Z177.441° S2024-12-27 01:59:42.547Z289.423° WNW40.186°2024-12-27 02:01:42.547Z338.532° N
|